STARLINK-34404

Last updated on Thu Jul 03 2025 00:02:07 GMT+0000 (Coordinated Universal Time)

1 64442U 25130E 25183.58335648 -.01004866 00000+0 -70668-2 0 9997 2 64442 53.1556 179.7969 0001100 48.4990 60.6602 15.75792990 3525
UTC large
Height (km)
Speed (km/s)
/
Latitude / Longitude
Inclination (degrees)
Orbital Period (minutes)
Azimuth
Elevation
Range (km)
Doppler Factor

Next 0 passes for location: London (51.5072 / 0.1276)

Sorry there are no passes over London.